Time,TemperatureF,DewpointF,PressureIn,WindDirection,WindDirectionDegrees,WindSpeedMPH,WindSpeedGustMPH,Humidity,HourlyPrecipIn,Conditions,Clouds,dailyrainin,SoftwareType,DateUTC
2013-08-03 00:00:00,80.0,-29.1,30.17,ESE,112,9.0,13.0,1,0.00,,,-99.99,Weather View 32 v70,2013-08-03 04:00:00,
2013-08-03 00:10:00,80.0,-29.1,30.17,East,90,5.0,13.0,1,0.00,,,-99.99,Weather View 32 v70,2013-08-03 04:10:00,
2013-08-03 00:20:00,80.0,-29.1,30.17,ESE,112,13.0,16.0,1,0.00,,,-99.99,Weather View 32 v70,2013-08-03 04:20:00,
2013-08-03 00:30:00,81.0,-28.5,30.16,ESE,112,10.0,16.0,1,0.00,,,-99.99,Weather View 32 v70,2013-08-03 04:30:00,
2013-08-03 00:40:00,81.0,-28.5,30.16,East,90,10.0,16.0,1,0.00,,,-99.99,Weather View 32 v70,2013-08-03 04:40:00,
2013-08-03 00:50:00,81.0,-28.5,30.15,ESE,112,14.0,17.0,1,0.00,,,-99.99,Weather View 32 v70,2013-08-03 04:50:00,
2013-08-03 01:00:00,81.0,-28.5,30.15,ESE,112,10.0,19.0,1,0.00,,,-99.99,Weather View 32 v70,2013-08-03 05:00:00,
2013-08-03 01:10:00,81.0,-28.5,30.15,ESE,112,12.0,19.0,1,0.00,,,-99.99,Weather View 32 v70,2013-08-03 05:10:00,
2013-08-03 01:20:00,81.0,-28.5,30.15,ESE,112,12.0,19.0,1,0.00,,,-99.99,Weather View 32 v70,2013-08-03 05:20:00,
2013-08-03 01:30:00,81.0,-28.5,30.15,ESE,112,10.0,19.0,1,0.00,,,-99.99,Weather View 32 v70,2013-08-03 05:30:00,
2013-08-03 01:40:00,80.0,-29.1,30.15,ESE,112,10.0,19.0,1,0.00,,,-99.99,Weather View 32 v70,2013-08-03 05:40:00,
2013-08-03 01:50:00,81.0,-28.5,30.15,ESE,112,12.0,19.0,1,0.00,,,-99.99,Weather View 32 v70,2013-08-03 05:50:00,
2013-08-03 02:00:00,81.0,-28.5,30.15,ESE,112,9.0,17.0,1,0.00,,,-99.99,Weather View 32 v70,2013-08-03 06:00:00,
2013-08-03 02:10:00,80.0,-29.1,30.14,East,90,7.0,16.0,1,0.00,,,-99.99,Weather View 32 v70,2013-08-03 06:10:00,
2013-08-03 02:20:00,80.0,-29.1,30.15,ESE,112,13.0,17.0,1,0.00,,,-99.99,Weather View 32 v70,2013-08-03 06:20:00,
2013-08-03 02:30:00,80.0,-29.1,30.14,ESE,112,9.0,17.0,1,0.00,,,-99.99,Weather View 32 v70,2013-08-03 06:30:00,
2013-08-03 02:40:00,80.0,-29.1,30.14,ESE,112,10.0,18.0,1,0.00,,,-99.99,Weather View 32 v70,2013-08-03 06:40:00,
2013-08-03 02:50:00,80.0,-29.1,30.14,ESE,112,9.0,19.0,1,0.00,,,-99.99,Weather View 32 v70,2013-08-03 06:50:00,
2013-08-03 03:10:00,80.0,-29.1,30.14,ESE,112,6.0,19.0,1,0.00,,,-99.99,Weather View 32 v70,2013-08-03 07:10:00,
2013-08-03 03:20:00,80.0,-29.1,30.14,ESE,112,5.0,19.0,1,0.00,,,-99.99,Weather View 32 v70,2013-08-03 07:20:00,
2013-08-03 03:30:00,80.0,-29.1,30.14,ESE,112,9.0,19.0,1,0.00,,,-99.99,Weather View 32 v70,2013-08-03 07:30:00,
2013-08-03 03:40:00,80.0,-29.1,30.13,East,90,9.0,19.0,1,0.00,,,-99.99,Weather View 32 v70,2013-08-03 07:40:00,
2013-08-03 03:50:00,81.0,-28.5,30.13,ESE,112,9.0,17.0,1,0.00,,,-99.99,Weather View 32 v70,2013-08-03 07:50:00,
2013-08-03 04:00:00,81.0,-28.5,30.14,ESE,112,6.0,19.0,1,0.00,,,-99.99,Weather View 32 v70,2013-08-03 08:00:00,
2013-08-03 04:10:00,80.0,-29.1,30.14,ESE,112,6.0,19.0,1,0.00,,,-99.99,Weather View 32 v70,2013-08-03 08:10:00,
2013-08-03 04:20:00,80.0,-29.1,30.14,ESE,112,10.0,19.0,1,0.00,,,-99.99,Weather View 32 v70,2013-08-03 08:20:00,
2013-08-03 04:30:00,80.0,-29.1,30.14,ESE,112,12.0,19.0,1,0.00,,,-99.99,Weather View 32 v70,2013-08-03 08:30:00,
2013-08-03 04:40:00,81.0,-28.5,30.14,ESE,112,8.0,19.0,1,0.00,,,-99.99,Weather View 32 v70,2013-08-03 08:40:00,
2013-08-03 04:50:00,80.0,-29.1,30.15,ESE,112,12.0,19.0,1,0.00,,,-99.99,Weather View 32 v70,2013-08-03 08:50:00,
2013-08-03 05:00:00,80.0,-29.1,30.15,ESE,112,11.0,19.0,1,0.00,,,-99.99,Weather View 32 v70,2013-08-03 09:00:00,
2013-08-03 05:10:00,80.0,-29.1,30.17,ESE,112,8.0,19.0,1,0.00,,,-99.99,Weather View 32 v70,2013-08-03 09:10:00,
2013-08-03 05:20:00,80.0,-29.1,30.17,ESE,112,13.0,19.0,1,0.00,,,-99.99,Weather View 32 v70,2013-08-03 09:20:00,
2013-08-03 05:30:00,80.0,-29.1,30.16,ESE,112,9.0,18.0,1,0.00,,,-99.99,Weather View 32 v70,2013-08-03 09:30:00,
2013-08-03 05:40:00,80.0,-29.1,30.18,ESE,112,4.0,18.0,1,0.00,,,-99.99,Weather View 32 v70,2013-08-03 09:40:00,
2013-08-03 05:50:00,81.0,-28.5,30.17,ESE,112,8.0,15.0,1,0.00,,,-99.99,Weather View 32 v70,2013-08-03 09:50:00,
2013-08-03 06:00:00,81.0,-28.5,30.17,ESE,112,6.0,15.0,1,0.00,,,-99.99,Weather View 32 v70,2013-08-03 10:00:00,
2013-08-03 06:10:00,81.0,-28.5,30.17,ESE,112,4.0,15.0,1,0.00,,,-99.99,Weather View 32 v70,2013-08-03 10:10:00,
2013-08-03 06:20:00,81.0,-28.5,30.17,ESE,112,14.0,15.0,1,0.00,,,-99.99,Weather View 32 v70,2013-08-03 10:20:00,
2013-08-03 06:30:00,81.0,-28.5,30.17,ESE,112,9.0,17.0,1,0.00,,,-99.99,Weather View 32 v70,2013-08-03 10:30:00,
2013-08-03 06:40:00,82.0,-27.9,30.18,ESE,112,9.0,17.0,1,0.00,,,-99.99,Weather View 32 v70,2013-08-03 10:40:00,
2013-08-03 06:50:00,82.0,-27.9,30.18,ESE,112,9.0,17.0,1,0.00,,,-99.99,Weather View 32 v70,2013-08-03 10:50:00,
2013-08-03 07:00:00,82.0,-27.9,30.18,ESE,112,7.0,17.0,1,0.00,,,-99.99,Weather View 32 v70,2013-08-03 11:00:00,
2013-08-03 07:10:00,82.0,-27.9,30.18,ESE,112,8.0,17.0,1,0.00,,,-99.99,Weather View 32 v70,2013-08-03 11:10:00,
2013-08-03 07:20:00,82.0,-27.9,30.18,ESE,112,7.0,17.0,1,0.00,,,-99.99,Weather View 32 v70,2013-08-03 11:20:00,
2013-08-03 07:30:00,83.0,-27.3,30.18,ESE,112,3.0,16.0,1,0.00,,,-99.99,Weather View 32 v70,2013-08-03 11:30:00,
2013-08-03 07:40:00,83.0,-27.3,30.18,ESE,112,13.0,16.0,1,0.00,,,-99.99,Weather View 32 v70,2013-08-03 11:40:00,
2013-08-03 07:50:00,83.0,-27.3,30.19,ESE,112,9.0,17.0,1,0.00,,,-99.99,Weather View 32 v70,2013-08-03 11:50:00,
2013-08-03 08:00:00,83.0,-27.3,30.18,ESE,112,6.0,17.0,1,0.00,,,-99.99,Weather View 32 v70,2013-08-03 12:00:00,
2013-08-03 08:10:00,83.0,-27.3,30.18,ESE,112,6.0,17.0,1,0.00,,,-99.99,Weather View 32 v70,2013-08-03 12:10:00,
2013-08-03 08:20:00,84.0,-26.7,30.20,ESE,112,4.0,17.0,1,0.00,,,-99.99,Weather View 32 v70,2013-08-03 12:20:00,
2013-08-03 08:30:00,84.0,-26.7,30.19,ESE,112,7.0,17.0,1,0.00,,,-99.99,Weather View 32 v70,2013-08-03 12:30:00,
2013-08-03 08:40:00,84.0,-26.7,30.19,ESE,112,5.0,17.0,1,0.00,,,-99.99,Weather View 32 v70,2013-08-03 12:40:00,
2013-08-03 08:50:00,84.0,-26.7,30.19,ESE,112,3.0,16.0,1,0.00,,,-99.99,Weather View 32 v70,2013-08-03 12:50:00,
2013-08-03 09:00:00,84.0,-26.7,30.19,ESE,112,2.0,15.0,1,0.00,,,-99.99,Weather View 32 v70,2013-08-03 13:00:00,
2013-08-03 09:10:00,84.0,-26.7,30.20,ESE,112,6.0,15.0,1,0.00,,,-99.99,Weather View 32 v70,2013-08-03 13:10:00,
2013-08-03 09:20:00,84.0,-26.7,30.19,ESE,112,7.0,13.0,1,0.00,,,-99.99,Weather View 32 v70,2013-08-03 13:20:00,
2013-08-03 09:30:00,85.0,-26.1,30.19,ESE,112,7.0,14.0,1,0.00,,,-99.99,Weather View 32 v70,2013-08-03 13:30:00,
2013-08-03 09:40:00,84.0,-26.7,30.19,ESE,112,6.0,14.0,1,0.00,,,-99.99,Weather View 32 v70,2013-08-03 13:40:00,
2013-08-03 09:50:00,84.0,-26.7,30.19,ESE,112,3.0,14.0,1,0.00,,,-99.99,Weather View 32 v70,2013-08-03 13:50:00,
2013-08-03 10:00:00,84.0,-26.7,30.19,ESE,112,7.0,14.0,1,0.00,,,-99.99,Weather View 32 v70,2013-08-03 14:00:00,
2013-08-03 10:10:00,84.0,-26.7,30.19,ESE,112,6.0,14.0,1,0.00,,,-99.99,Weather View 32 v70,2013-08-03 14:10:00,
2013-08-03 10:20:00,85.0,-26.1,30.19,East,90,7.0,15.0,1,0.00,,,-99.99,Weather View 32 v70,2013-08-03 14:20:00,
2013-08-03 10:30:00,84.0,-26.7,30.18,ESE,112,5.0,15.0,1,0.00,,,-99.99,Weather View 32 v70,2013-08-03 14:30:00,
2013-08-03 10:40:00,84.0,-26.7,30.18,ESE,112,7.0,15.0,1,0.00,,,-99.99,Weather View 32 v70,2013-08-03 14:40:00,
2013-08-03 10:50:00,84.0,-26.7,30.18,ESE,112,1.0,15.0,1,0.00,,,-99.99,Weather View 32 v70,2013-08-03 14:50:00,
2013-08-03 11:10:00,84.0,-26.7,30.18,ESE,112,3.0,15.0,1,0.00,,,-99.99,Weather View 32 v70,2013-08-03 15:10:00,
2013-08-03 11:20:00,85.0,-26.1,30.18,ESE,112,1.0,15.0,1,0.00,,,-99.99,Weather View 32 v70,2013-08-03 15:20:00,
2013-08-03 11:30:00,85.0,-26.1,30.18,ESE,112,10.0,15.0,1,0.00,,,-99.99,Weather View 32 v70,2013-08-03 15:30:00,
2013-08-03 11:40:00,85.0,-26.1,30.18,ESE,112,6.0,15.0,1,0.00,,,-99.99,Weather View 32 v70,2013-08-03 15:40:00,
2013-08-03 11:50:00,85.0,-26.1,30.18,ESE,112,6.0,15.0,1,0.00,,,-99.99,Weather View 32 v70,2013-08-03 15:50:00,
2013-08-03 12:00:00,86.0,-25.5,30.18,ESE,112,9.0,15.0,1,0.00,,,-99.99,Weather View 32 v70,2013-08-03 16:00:00,
2013-08-03 12:10:00,85.0,-26.1,30.17,ESE,112,8.0,15.0,1,0.00,,,-99.99,Weather View 32 v70,2013-08-03 16:10:00,
2013-08-03 12:20:00,85.0,-26.1,30.17,ESE,112,5.0,15.0,1,0.00,,,-99.99,Weather View 32 v70,2013-08-03 16:20:00,
2013-08-03 12:30:00,85.0,-26.1,30.17,ESE,112,6.0,15.0,1,0.00,,,-99.99,Weather View 32 v70,2013-08-03 16:30:00,
2013-08-03 12:40:00,85.0,-26.1,30.17,ESE,112,6.0,15.0,1,0.00,,,-99.99,Weather View 32 v70,2013-08-03 16:40:00,
2013-08-03 12:50:00,85.0,-26.1,30.17,ESE,112,3.0,15.0,1,0.00,,,-99.99,Weather View 32 v70,2013-08-03 16:50:00,
2013-08-03 13:00:00,85.0,-26.1,30.16,East,90,6.0,15.0,1,0.00,,,-99.99,Weather View 32 v70,2013-08-03 17:00:00,
2013-08-03 13:10:00,85.0,-26.1,30.16,ESE,112,3.0,14.0,1,0.00,,,-99.99,Weather View 32 v70,2013-08-03 17:10:00,
2013-08-03 13:20:00,85.0,-26.1,30.16,ESE,112,5.0,14.0,1,0.00,,,-99.99,Weather View 32 v70,2013-08-03 17:20:00,
2013-08-03 13:30:00,85.0,-26.1,30.15,ESE,112,6.0,14.0,1,0.00,,,-99.99,Weather View 32 v70,2013-08-03 17:30:00,
2013-08-03 13:50:00,84.0,-26.7,30.15,ESE,112,6.0,13.0,1,0.00,,,-99.99,Weather View 32 v70,2013-08-03 17:50:00,
2013-08-03 14:10:00,84.0,-26.7,30.14,East,90,2.0,13.0,1,0.00,,,-99.99,Weather View 32 v70,2013-08-03 18:10:00,
2013-08-03 14:20:00,84.0,-26.7,30.14,ESE,112,6.0,13.0,1,0.00,,,-99.99,Weather View 32 v70,2013-08-03 18:20:00,
2013-08-03 14:40:00,85.0,-26.1,30.14,ESE,112,2.0,13.0,1,0.00,,,-99.99,Weather View 32 v70,2013-08-03 18:40:00,
2013-08-03 14:50:00,84.0,-26.7,30.14,ESE,112,7.0,12.0,1,0.00,,,-99.99,Weather View 32 v70,2013-08-03 18:50:00,
2013-08-03 15:10:00,85.0,-26.1,30.13,ESE,112,6.0,13.0,1,0.00,,,-99.99,Weather View 32 v70,2013-08-03 19:10:00,
2013-08-03 15:20:00,85.0,-26.1,30.13,ESE,112,2.0,13.0,1,0.00,,,-99.99,Weather View 32 v70,2013-08-03 19:20:00,
2013-08-03 15:22:00,84.0,-26.7,30.15,ESE,112,4.0,13.0,1,0.00,,,-99.99,Weather View 32 v70,2013-08-03 19:22:00,
2013-08-03 15:30:00,84.0,-26.7,30.13,ESE,112,3.0,13.0,1,0.00,,,-99.99,Weather View 32 v70,2013-08-03 19:30:00,
2013-08-03 15:40:00,84.0,-26.7,30.14,East,90,5.0,13.0,1,0.00,,,-99.99,Weather View 32 v70,2013-08-03 19:40:00,
2013-08-03 15:52:00,84.0,-26.7,30.14,ESE,112,4.0,13.0,1,0.00,,,-99.99,Weather View 32 v70,2013-08-03 19:52:00,
2013-08-03 16:10:00,83.0,-27.3,30.15,East,90,8.0,11.0,1,0.00,,,-99.99,Weather View 32 v70,2013-08-03 20:10:00,
2013-08-03 16:30:00,83.0,-27.3,30.14,East,90,10.0,12.0,1,0.00,,,-99.99,Weather View 32 v70,2013-08-03 20:30:00,
2013-08-03 16:40:00,82.0,-27.9,30.14,East,90,7.0,12.0,1,0.00,,,-99.99,Weather View 32 v70,2013-08-03 20:40:00,
2013-08-03 17:00:00,82.0,-27.9,30.14,ESE,112,7.0,12.0,1,0.00,,,-99.99,Weather View 32 v70,2013-08-03 21:00:00,
2013-08-03 17:10:00,82.0,-27.9,30.14,East,90,7.0,12.0,1,0.00,,,-99.99,Weather View 32 v70,2013-08-03 21:10:00,
2013-08-03 17:12:00,83.0,-27.3,30.14,East,90,6.0,13.0,1,0.00,,,-99.99,Weather View 32 v70,2013-08-03 21:12:00,
2013-08-03 17:22:00,83.0,-27.3,30.15,ESE,112,6.0,11.0,1,0.00,,,-99.99,Weather View 32 v70,2013-08-03 21:22:00,
2013-08-03 17:42:00,83.0,-27.3,30.14,East,90,9.0,11.0,1,0.00,,,-99.99,Weather View 32 v70,2013-08-03 21:42:00,
2013-08-03 18:00:00,82.0,-27.9,30.15,East,90,7.0,11.0,1,0.00,,,-99.99,Weather View 32 v70,2013-08-03 22:00:00,
2013-08-03 18:10:00,82.0,-27.9,30.15,East,90,4.0,11.0,1,0.00,,,-99.99,Weather View 32 v70,2013-08-03 22:10:00,
2013-08-03 18:12:00,82.0,-27.9,30.14,East,90,11.0,12.0,1,0.00,,,-99.99,Weather View 32 v70,2013-08-03 22:12:00,
2013-08-03 18:30:00,82.0,-27.9,30.16,ESE,112,6.0,11.0,1,0.00,,,-99.99,Weather View 32 v70,2013-08-03 22:30:00,
2013-08-03 18:42:00,82.0,-27.9,30.14,ESE,112,5.0,12.0,1,0.00,,,-99.99,Weather View 32 v70,2013-08-03 22:42:00,
2013-08-03 18:50:00,82.0,-27.9,30.16,East,90,11.0,13.0,1,0.00,,,-99.99,Weather View 32 v70,2013-08-03 22:50:00,
2013-08-03 18:52:00,82.0,-27.9,30.14,East,90,7.0,12.0,1,0.00,,,-99.99,Weather View 32 v70,2013-08-03 22:52:00,
2013-08-03 19:00:00,82.0,-27.9,30.16,East,90,8.0,13.0,1,0.00,,,-99.99,Weather View 32 v70,2013-08-03 23:00:00,
2013-08-03 19:02:00,82.0,-27.9,30.14,East,90,6.0,12.0,1,0.00,,,-99.99,Weather View 32 v70,2013-08-03 23:02:00,
2013-08-03 19:10:00,82.0,-27.9,30.17,East,90,10.0,13.0,1,0.00,,,-99.99,Weather View 32 v70,2013-08-03 23:10:00,
2013-08-03 19:12:00,82.0,-27.9,30.15,East,90,9.0,12.0,1,0.00,,,-99.99,Weather View 32 v70,2013-08-03 23:12:00,
2013-08-03 19:40:00,81.0,-28.5,30.18,East,90,7.0,15.0,1,0.00,,,-99.99,Weather View 32 v70,2013-08-03 23:40:00,
2013-08-03 19:42:00,82.0,-27.9,30.15,East,90,8.0,11.0,1,0.00,,,-99.99,Weather View 32 v70,2013-08-03 23:42:00,
2013-08-03 19:50:00,81.0,-28.5,30.18,East,90,12.0,16.0,1,0.00,,,-99.99,Weather View 32 v70,2013-08-03 23:50:00,
2013-08-03 20:00:00,81.0,-28.5,30.18,ESE,112,12.0,16.0,1,0.00,,,-99.99,Weather View 32 v70,2013-08-04 00:00:00,
2013-08-03 20:02:00,82.0,-27.9,30.16,East,90,8.0,12.0,1,0.00,,,-99.99,Weather View 32 v70,2013-08-04 00:02:00,
2013-08-03 20:30:00,81.0,-28.5,30.20,East,90,10.0,17.0,1,0.00,,,-99.99,Weather View 32 v70,2013-08-04 00:30:00,
2013-08-03 20:42:00,81.0,-28.5,30.17,East,90,13.0,13.0,1,0.00,,,-99.99,Weather View 32 v70,2013-08-04 00:42:00,
2013-08-03 20:52:00,82.0,-27.9,30.18,ESE,112,7.0,15.0,1,0.00,,,-99.99,Weather View 32 v70,2013-08-04 00:52:00,
2013-08-03 21:00:00,81.0,-28.5,30.21,ESE,112,13.0,17.0,1,0.00,,,-99.99,Weather View 32 v70,2013-08-04 01:00:00,
2013-08-03 21:20:00,81.0,-28.5,30.22,East,90,9.0,17.0,1,0.00,,,-99.99,Weather View 32 v70,2013-08-04 01:20:00,
2013-08-03 21:30:00,81.0,-28.5,30.22,East,90,10.0,16.0,1,0.00,,,-99.99,Weather View 32 v70,2013-08-04 01:30:00,
2013-08-03 21:32:00,81.0,-28.5,30.20,ESE,112,12.0,16.0,1,0.00,,,-99.99,Weather View 32 v70,2013-08-04 01:32:00,
2013-08-03 21:42:00,81.0,-28.5,30.20,East,90,10.0,17.0,1,0.00,,,-99.99,Weather View 32 v70,2013-08-04 01:42:00,
2013-08-03 22:02:00,81.0,-28.5,30.21,East,90,11.0,17.0,1,0.00,,,-99.99,Weather View 32 v70,2013-08-04 02:02:00,
2013-08-03 22:12:00,81.0,-28.5,30.21,ESE,112,9.0,17.0,1,0.00,,,-99.99,Weather View 32 v70,2013-08-04 02:12:00,
2013-08-03 22:32:00,81.0,-28.5,30.22,ESE,112,6.0,17.0,1,0.00,,,-99.99,Weather View 32 v70,2013-08-04 02:32:00,
2013-08-03 22:40:00,81.0,-28.5,30.21,ESE,112,8.0,17.0,1,0.00,,,-99.99,Weather View 32 v70,2013-08-04 02:40:00,
2013-08-03 22:50:00,81.0,-28.5,30.21,East,90,7.0,17.0,1,0.00,,,-99.99,Weather View 32 v70,2013-08-04 02:50:00,
2013-08-03 23:00:00,81.0,-28.5,30.21,East,90,9.0,17.0,1,0.00,,,-99.99,Weather View 32 v70,2013-08-04 03:00:00,
2013-08-03 23:02:00,81.0,-28.5,30.22,ESE,112,7.0,16.0,1,0.00,,,-99.99,Weather View 32 v70,2013-08-04 03:02:00,
2013-08-03 23:10:00,81.0,-28.5,30.20,East,90,7.0,17.0,1,0.00,,,-99.99,Weather View 32 v70,2013-08-04 03:10:00,
2013-08-03 23:12:00,81.0,-28.5,30.22,ESE,112,6.0,16.0,1,0.00,,,-99.99,Weather View 32 v70,2013-08-04 03:12:00,
2013-08-03 23:20:00,81.0,-28.5,30.20,ESE,112,4.0,17.0,1,0.00,,,-99.99,Weather View 32 v70,2013-08-04 03:20:00,
2013-08-03 23:22:00,81.0,-28.5,30.23,East,90,7.0,16.0,1,0.00,,,-99.99,Weather View 32 v70,2013-08-04 03:22:00,
2013-08-03 23:30:00,81.0,-28.5,30.20,ESE,112,7.0,17.0,1,0.00,,,-99.99,Weather View 32 v70,2013-08-04 03:30:00,
2013-08-03 23:32:00,81.0,-28.5,30.22,ESE,112,4.0,16.0,1,0.00,,,-99.99,Weather View 32 v70,2013-08-04 03:32:00,
2013-08-03 23:40:00,81.0,-28.5,30.20,East,90,7.0,17.0,1,0.00,,,-99.99,Weather View 32 v70,2013-08-04 03:40:00,
2013-08-03 23:42:00,81.0,-28.5,30.22,ESE,112,7.0,16.0,1,0.00,,,-99.99,Weather View 32 v70,2013-08-04 03:42:00,
2013-08-03 23:50:00,80.0,-29.1,30.20,East,90,7.0,15.0,1,0.00,,,-99.99,Weather View 32 v70,2013-08-04 03:50:00,
2013-08-03 23:52:00,81.0,-28.5,30.22,ESE,112,4.0,16.0,1,0.00,,,-99.99,Weather View 32 v70,2013-08-04 03:52:00,